Location: Newark
(54.0500°N, 12.8333°E)
Time: 19:08:02
(UTC+00:00)

Transit 4A - Pass Details

Date: 02 February 2020
Orbit: 872 x 973 km, 66.8° (Epoch: 19 February)

Event Time Altitude Azimuth Distance (km) Brightness Sun altitude
Exits shadow 05:35:48 - 242° (WSW) 2,891 10.0 -11.7°
Reaches altitude 10° 05:36:41 10° 245° (WSW) 2,567 9.8 -11.6°
Maximum altitude 05:42:28 52° 321° (NW) 1,087 8.0 -10.8°
Drops below altitude 10° 05:48:12 10° 38° (NE) 2,537 10.5 -9.9°
Sets 05:50:45 0° 44° (NE) 3,474 11.3 -9.6°
